sat.trackr.live / text

‹ back to catalog

STARLINK-35253

NORAD 65596 · 2025-207E

PAYLOAD ACTIVE UNKNOWN

§ Identity

Operator
Country
US
Launch date
2025-09-13
Launch site
AFWTR
Launch vehicle
Mass (kg)
RCS (m²)

Purposes: comms

External: N2YO · Heavens-Above · Gunter

§ Orbital elements

Epoch: 2026-05-25T03:35:41.677152Z

Period
95.64 min
Inclination
97.4489°
Eccentricity
0.0001737
Mean motion
15.05652072 rev/d
Perigee alt
548.3 km
Apogee alt
550.7 km
Semi-major
6,927.6 km
B*
2.3719e-4
RAAN
213.6185°
Arg perigee
176.8942°
Mean anomaly
183.2296°
Rev number
3,955

§ Raw data

STARLINK-352531 65596U 25207E   26145.14978793  .00003366  00000+0  23719-3 0  99952 65596  97.4489 213.6185 0001737 176.8942 183.2296 15.05652072 39551

JSON: /api/v1/satellites/65596 · /tle

For live sub-satellite position, see the globe view (requires WebGL).

§ Visibility from observer

Set your observer location to see the next 7 days of passes ≥ 10°. The values pass through the URL so the page stays shareable.

No JS? Fill the form by hand. The geolocation button needs JavaScript.